Jackson, KY

11:16 AM EDT on August 18, 2017 (GMT -0400)
Carroll

Weather History for KJKL - February, 2014

Change the Weather History Date:

Monday, February 17, 2014

  Actual Average Record
Temperature  
Mean Temperature 40 °F 39 °F  
Max Temperature 56 °F 48 °F 70 °F (2011)
Min Temperature 23 °F 30 °F 7 °F (2015)
Degree Days  
Heating Degree Days 25 26  
Month to date heating degree days 561 468  
Since 1 July heating degree days 3345 3034  
Cooling Degree Days 0 0  
Month to date cooling degree days 0 0  
Year to date cooling degree days 0 0  
Moisture  
Dew Point 28 °F    
Average Humidity 63    
Maximum Humidity 88    
Minimum Humidity 38    
Precipitation  
Precipitation 0.08 in 0.14 in 1.15 in (1986)
Month to date precipitation 3.06 2.26  
Year to date precipitation 6.21 5.87  
Snow  
Snow 0.00 in 0.20 in 1.60 in (2007)
Month to date snowfall 7.5 4.7  
Since 1 July snowfall 25.8 17.3  
Snow Depth T in    
Sea Level Pressure  
Sea Level Pressure 30.08 in    
Wind  
Wind Speed 6 mph (SSW)    
Max Wind Speed 22 mph    
Max Gust Speed 33 mph    
Visibility 9 miles    
Events Rain    
T = Trace of Precipitation, MM = Missing Value Source: NWS Daily Summary

Daily Weather History Graph

Daily Weather History Graph

Search for Another Location

Airport or City:

Trip Planner

Search our weather history database for the weather conditions in past years. The results will help you decide how hot, cold, wet, or windy it might be!

Date:

Astronomy

Feb. 17, 2014 Rise Set
Actual Time 7:20 AM EST 6:14 PM EST
Civil Twilight 6:53 AM EST 6:41 PM EST
Nautical Twilight 6:23 AM EST 7:12 PM EST
Astronomical Twilight 5:52 AM EST 7:42 PM EST
Moon 9:03 PM EST (2/17) 8:24 AM EST (2/17)
Length of Visible Light 11h 47m
Length of Day
10h 54m
Waning Gibbous, 93% of the Moon is Illuminated
Feb 17
Waning Gibbous
Feb 22
Last Quarter
Mar 1
New
Mar 8
First Quarter
Mar 16
Full

Hourly Weather History & Observations

Time (EST) Temp. Windchill Dew Point Humidity Pressure Visibility Wind Dir Wind Speed Gust Speed Precip Events Conditions
12:53 AM 26.1 °F 19.4 °F 19.9 °F 78% 30.26 in 10.0 mi NE 5.8 mph - N/A   Clear
1:53 AM 25.0 °F 18.1 °F 19.0 °F 78% 30.26 in 10.0 mi NE 5.8 mph - N/A   Clear
2:53 AM 25.0 °F 18.1 °F 19.0 °F 78% 30.25 in 10.0 mi NE 5.8 mph - N/A   Clear
3:53 AM 24.1 °F 18.2 °F 19.0 °F 81% 30.26 in 9.0 mi Variable 4.6 mph - N/A   Clear
4:53 AM 24.1 °F 17.0 °F 18.0 °F 77% 30.26 in 9.0 mi Variable 5.8 mph - N/A   Clear
5:53 AM 24.1 °F 18.2 °F 19.0 °F 81% 30.27 in 9.0 mi Variable 4.6 mph - N/A   Clear
6:53 AM 24.1 °F 18.2 °F 19.0 °F 81% 30.26 in 9.0 mi Variable 4.6 mph - N/A   Clear
7:53 AM 23.0 °F 15.8 °F 19.0 °F 85% 30.25 in 6.0 mi ENE 5.8 mph - N/A   Clear
8:53 AM 26.1 °F 20.5 °F 21.0 °F 81% 30.25 in 7.0 mi NE 4.6 mph - N/A   Clear
9:53 AM 27.0 °F 21.6 °F 21.0 °F 78% 30.23 in 9.0 mi Variable 4.6 mph - N/A   Partly Cloudy
10:53 AM 30.9 °F 26.2 °F 24.1 °F 76% 30.20 in 10.0 mi Variable 4.6 mph - N/A   Mostly Cloudy
11:53 AM 32.0 °F 28.7 °F 24.1 °F 73% 30.15 in 10.0 mi Variable 3.5 mph - N/A   Mostly Cloudy
12:53 PM 37.9 °F 35.5 °F 26.1 °F 62% 30.09 in 10.0 mi Variable 3.5 mph - N/A   Clear
1:53 PM 43.0 °F - 28.0 °F 56% 30.04 in 10.0 mi Calm Calm - N/A   Clear
2:53 PM 50.0 °F - 30.0 °F 46% 29.96 in 10.0 mi Variable 3.5 mph - N/A   Scattered Clouds
3:53 PM 55.0 °F - 30.0 °F 38% 29.90 in 10.0 mi Variable 4.6 mph - N/A   Clear
4:53 PM 55.0 °F - 32.0 °F 42% 29.87 in 10.0 mi South 8.1 mph 17.3 mph N/A   Overcast
5:53 PM 54.0 °F - 32.0 °F 43% 29.83 in 10.0 mi Variable 5.8 mph 23.0 mph N/A   Overcast
6:53 PM 50.0 °F - 37.0 °F 61% 29.84 in 9.0 mi South 9.2 mph 23.0 mph 0.02 in Rain Light Rain
7:53 PM 48.0 °F - 41.0 °F 77% 29.90 in 7.0 mi SW 11.5 mph 21.9 mph 0.04 in Rain Light Rain
8:51 PM 46.4 °F 43.5 °F 42.8 °F 87% 29.88 in 10.0 mi Variable 5.8 mph 19.6 mph 0.02 in   Overcast
8:53 PM 46.9 °F - 43.0 °F 86% 29.90 in 10.0 mi Variable 4.6 mph 17.3 mph 0.02 in   Overcast
9:53 PM 48.9 °F - 44.1 °F 83% 29.96 in 10.0 mi SW 8.1 mph 20.7 mph N/A   Overcast
10:37 PM 45.0 °F 38.5 °F 35.1 °F 68% 30.00 in 10.0 mi WSW 13.8 mph 33.4 mph N/A   Scattered Clouds
10:53 PM 44.1 °F 38.6 °F 34.0 °F 68% 30.03 in 10.0 mi WSW 10.4 mph 25.3 mph N/A   Scattered Clouds
11:53 PM 41.0 °F 33.5 °F 30.9 °F 67% 30.07 in 10.0 mi WSW 13.8 mph 25.3 mph N/A   Scattered Clouds